DLH982 KIAD-EDDF

Flight info

Callsign DLH982
Flight time N/A
Altitude 35000
Route JCOBY4 SWANN DCT BROSS Q419 RBV Q22 FOXWD DCT WITCH DCT EBONY N567B TUDEP/M082F370 DCT 52N050W 54N040W 55N030W 55N020W DCT DOGAL DCT BEXET/N0476F370 DCT LIFFY UL975 WAL M16 DOLAS DCT NAVPI DCT SOGPO DCT DIXAT DIXAT1D
Aircraft A346/H-SDE2E3FGHIJ3J4J5M1RWXY/LB1D1

Departure

Time 2026-05-08 05:09
Airport Washington Dulles International Airport (KIAD)

Arrival

Time N/A
Airport Frankfurt Main Airport (EDDF)
Time Latitude Longitude Altitude Speed Heading
2026-05-08 04:41 38.94795 -77.44838 309 ft 0 kts
2026-05-08 04:48 38.94796 -77.44838 309 ft 0 kts
2026-05-08 04:57 38.94795 -77.44839 308 ft 2 kts
2026-05-08 04:57 38.94779 -77.44840 310 ft 4 kts
2026-05-08 04:57 38.94756 -77.44842 309 ft 4 kts 10°
2026-05-08 04:58 38.94736 -77.44852 307 ft 4 kts 41°
2026-05-08 04:58 38.94727 -77.44869 310 ft 4 kts 80°
2026-05-08 04:58 38.94726 -77.44902 310 ft 4 kts 94°
2026-05-08 04:58 38.94727 -77.44923 310 ft 0 kts 90°
2026-05-08 05:01 38.94727 -77.44914 309 ft 2 kts 90°
2026-05-08 05:02 38.94727 -77.44881 301 ft 5 kts 90°
2026-05-08 05:02 38.94727 -77.44810 312 ft 12 kts 90°
2026-05-08 05:02 38.94726 -77.44661 311 ft 15 kts 90°
2026-05-08 05:02 38.94726 -77.44646 311 ft 0 kts 90°
2026-05-08 05:03 38.94726 -77.44645 311 ft 0 kts 90°
2026-05-08 05:04 38.94725 -77.44605 310 ft 10 kts 90°
2026-05-08 05:04 38.94724 -77.44482 308 ft 15 kts 91°
2026-05-08 05:04 38.94722 -77.44343 308 ft 16 kts 90°
2026-05-08 05:04 38.94722 -77.44196 308 ft 17 kts 90°
2026-05-08 05:05 38.94719 -77.44045 308 ft 17 kts 91°
2026-05-08 05:05 38.94720 -77.43897 309 ft 10 kts 74°
2026-05-08 05:05 38.94777 -77.43849 309 ft 12 kts 358°
2026-05-08 05:05 38.94865 -77.43852 309 ft 13 kts 358°
2026-05-08 05:06 38.94961 -77.43855 311 ft 15 kts 359°
2026-05-08 05:06 38.95072 -77.43855 310 ft 17 kts
2026-05-08 05:06 38.95206 -77.43851 309 ft 21 kts
2026-05-08 05:06 38.95364 -77.43845 311 ft 24 kts
2026-05-08 05:07 38.95481 -77.43797 311 ft 16 kts 81°
2026-05-08 05:07 38.95482 -77.43652 311 ft 16 kts 104°
2026-05-08 05:07 38.95402 -77.43600 309 ft 14 kts 175°
2026-05-08 05:07 38.95290 -77.43603 310 ft 26 kts 181°
2026-05-08 05:08 38.94907 -77.43600 308 ft 82 kts 180°
2026-05-08 05:08 38.94162 -77.43616 310 ft 131 kts 180°
2026-05-08 05:08 38.93107 -77.43632 311 ft 170 kts 179°
2026-05-08 05:08 38.91865 -77.43662 590 ft 181 kts 181°
2026-05-08 05:09 38.90594 -77.43752 1039 ft 185 kts 197°
2026-05-08 05:09 38.89606 -77.44685 1432 ft 175 kts 252°
2026-05-08 05:09 38.89473 -77.46169 1821 ft 165 kts 291°
2026-05-08 05:09 38.90052 -77.47422 2173 ft 168 kts 313°
2026-05-08 05:10 38.90824 -77.48632 2452 ft 181 kts 310°
2026-05-08 05:10 38.92493 -77.51410 2998 ft 213 kts 309°
2026-05-08 05:10 38.93440 -77.52965 3346 ft 229 kts 309°
2026-05-08 05:11 38.94438 -77.54585 3861 ft 237 kts 309°
2026-05-08 05:11 38.95477 -77.56250 4519 ft 240 kts 309°
2026-05-08 05:11 38.96541 -77.57927 5148 ft 244 kts 309°
2026-05-08 05:11 38.97637 -77.59632 5795 ft 249 kts 309°
2026-05-08 05:12 38.98747 -77.61362 6509 ft 251 kts 309°
2026-05-08 05:12 38.99867 -77.63103 7207 ft 253 kts 309°
2026-05-08 05:12 39.00996 -77.64840 7938 ft 255 kts 312°
2026-05-08 05:12 39.02457 -77.66130 8607 ft 263 kts 342°
2026-05-08 05:13 39.04299 -77.66257 9302 ft 273 kts
2026-05-08 05:13 39.06083 -77.65295 9987 ft 287 kts 32°
2026-05-08 05:13 39.07425 -77.63309 10510 ft 306 kts 60°
2026-05-08 05:13 39.08180 -77.60691 10853 ft 324 kts 69°
2026-05-08 05:14 39.08879 -77.57847 11144 ft 340 kts 69°
2026-05-08 05:14 39.09614 -77.54872 11437 ft 356 kts 69°
2026-05-08 05:14 39.10399 -77.51769 11728 ft 372 kts 69°
2026-05-08 05:14 39.11231 -77.48532 12018 ft 387 kts 69°
2026-05-08 05:15 39.12104 -77.45168 12309 ft 402 kts 69°
2026-05-08 05:15 39.13002 -77.41709 12839 ft 410 kts 69°
2026-05-08 05:15 39.13915 -77.38208 13507 ft 414 kts 69°
2026-05-08 05:15 39.14835 -77.34666 14074 ft 419 kts 70°
2026-05-08 05:16 39.15428 -77.30936 14552 ft 429 kts 84°
2026-05-08 05:16 39.15375 -77.27116 15017 ft 435 kts 98°
2026-05-08 05:16 39.14798 -77.23263 15491 ft 441 kts 104°
2026-05-08 05:16 39.14083 -77.19385 15898 ft 449 kts 106°
2026-05-08 05:17 39.13358 -77.15419 16292 ft 458 kts 105°
2026-05-08 05:17 39.12681 -77.11380 16797 ft 464 kts 104°
2026-05-08 05:17 39.12037 -77.07341 17260 ft 470 kts 104°
2026-05-08 05:17 39.11375 -77.03088 17728 ft 477 kts 103°
2026-05-08 05:18 39.10908 -76.98817 18159 ft 486 kts 97°
2026-05-08 05:18 39.10743 -76.94419 18538 ft 494 kts 91°
2026-05-08 05:18 39.10817 -76.89970 18968 ft 499 kts 89°
2026-05-08 05:18 39.10961 -76.85540 19433 ft 502 kts 88°
2026-05-08 05:19 39.11115 -76.81011 19870 ft 507 kts 88°
2026-05-08 05:19 39.11254 -76.76447 20299 ft 511 kts 89°
2026-05-08 05:19 39.11382 -76.71693 20751 ft 516 kts 89°
2026-05-08 05:19 39.11495 -76.67100 21167 ft 520 kts 89°
2026-05-08 05:20 39.11603 -76.62427 21601 ft 524 kts 89°
2026-05-08 05:20 39.11711 -76.57701 22032 ft 528 kts 89°
2026-05-08 05:20 39.11872 -76.52943 22442 ft 532 kts 86°
2026-05-08 05:20 39.12248 -76.48164 22834 ft 537 kts 82°
2026-05-08 05:21 39.12773 -76.43373 23256 ft 540 kts 81°
2026-05-08 05:21 39.13333 -76.38622 23669 ft 544 kts 80°
2026-05-08 05:21 39.13907 -76.33782 24013 ft 547 kts 80°
2026-05-08 05:21 39.14471 -76.28905 24368 ft 551 kts 81°
2026-05-08 05:22 39.15024 -76.23992 24707 ft 554 kts 81°
2026-05-08 05:22 39.15581 -76.19048 25062 ft 557 kts 81°
2026-05-08 05:22 39.16149 -76.14091 25366 ft 560 kts 81°
2026-05-08 05:22 39.16727 -76.09089 25712 ft 563 kts 81°
2026-05-08 05:23 39.17304 -76.04068 26050 ft 566 kts 81°
2026-05-08 05:23 39.17878 -75.99027 26378 ft 570 kts 81°
2026-05-08 05:23 39.18469 -75.93961 26772 ft 572 kts 78°
2026-05-08 05:23 39.19631 -75.89059 26976 ft 569 kts 60°
2026-05-08 05:24 39.21781 -75.84845 27236 ft 556 kts 40°
2026-05-08 05:24 39.24555 -75.81556 27626 ft 544 kts 31°
2026-05-08 05:24 39.27503 -75.78495 28083 ft 542 kts 29°
2026-05-08 05:24 39.30461 -75.75461 28525 ft 542 kts 30°
2026-05-08 05:25 39.33395 -75.72388 29030 ft 542 kts 30°
2026-05-08 05:25 39.36301 -75.69265 29509 ft 542 kts 31°
2026-05-08 05:25 39.39182 -75.66123 30082 ft 541 kts 32°
2026-05-08 05:25 39.42043 -75.62966 30570 ft 539 kts 32°
2026-05-08 05:26 39.44857 -75.59853 30984 ft 537 kts 31°
2026-05-08 05:26 39.47696 -75.56718 31352 ft 537 kts 31°
2026-05-08 05:26 39.50550 -75.53572 31705 ft 537 kts 31°
2026-05-08 05:26 39.53396 -75.50433 32055 ft 537 kts 31°
2026-05-08 05:27 39.56253 -75.47279 32459 ft 537 kts 31°
2026-05-08 05:27 39.59092 -75.44144 32851 ft 535 kts 31°
2026-05-08 05:27 39.61924 -75.41007 33245 ft 534 kts 31°
2026-05-08 05:27 39.64748 -75.37875 33583 ft 534 kts 31°
2026-05-08 05:28 39.67577 -75.34735 33895 ft 534 kts 31°
2026-05-08 05:28 39.70404 -75.31594 34154 ft 534 kts 31°
2026-05-08 05:28 39.73195 -75.28491 34412 ft 534 kts 31°
2026-05-08 05:28 39.76027 -75.25338 34673 ft 534 kts 32°
2026-05-08 05:29 39.78783 -75.22073 34939 ft 538 kts 36°
2026-05-08 05:29 39.81411 -75.18560 35202 ft 542 kts 40°
2026-05-08 05:29 39.83933 -75.14878 35419 ft 545 kts 41°
2026-05-08 05:29 39.86428 -75.11130 35576 ft 547 kts 42°
2026-05-08 05:30 39.88882 -75.07424 35739 ft 548 kts 42°
2026-05-08 05:30 39.91389 -75.03655 35870 ft 549 kts 41°
2026-05-08 05:30 39.93906 -74.99895 36079 ft 551 kts 42°
2026-05-08 05:30 39.96384 -74.96066 36296 ft 553 kts 46°
2026-05-08 05:31 39.98693 -74.92025 36546 ft 555 kts 50°
2026-05-08 05:31 40.00860 -74.87861 36716 ft 557 kts 51°
2026-05-08 05:31 40.03001 -74.83620 36843 ft 559 kts 52°
2026-05-08 05:32 40.07286 -74.75088 36891 ft 561 kts 51°
2026-05-08 05:32 40.11567 -74.66627 36921 ft 561 kts 52°
2026-05-08 05:33 40.15898 -74.58127 36898 ft 559 kts 50°
2026-05-08 05:33 40.20679 -74.50142 36884 ft 553 kts 42°
2026-05-08 05:34 40.26109 -74.43092 36895 ft 545 kts 33°
2026-05-08 05:34 40.31927 -74.36844 36907 ft 543 kts 31°
2026-05-08 05:35 40.37831 -74.30629 36888 ft 544 kts 32°
2026-05-08 05:35 40.43739 -74.24323 36894 ft 545 kts 32°
2026-05-08 05:36 40.49615 -74.18006 36922 ft 546 kts 32°
2026-05-08 05:36 40.55515 -74.11643 36902 ft 547 kts 32°
2026-05-08 05:37 40.61394 -74.05285 36900 ft 547 kts 32°
2026-05-08 05:37 40.67239 -73.98951 36913 ft 548 kts 33°
2026-05-08 05:38 40.73145 -73.92536 36882 ft 550 kts 33°
2026-05-08 05:38 40.79055 -73.86093 36878 ft 550 kts 33°
2026-05-08 05:39 40.84770 -73.79290 36923 ft 555 kts 40°
2026-05-08 05:39 40.89861 -73.71540 36881 ft 561 kts 49°
2026-05-08 05:40 40.94403 -73.63073 36872 ft 564 kts 52°
2026-05-08 05:40 40.98850 -73.54540 36878 ft 564 kts 52°
2026-05-08 05:41 41.03330 -73.46006 36884 ft 564 kts 51°
2026-05-08 05:41 41.07836 -73.37448 36880 ft 564 kts 51°
2026-05-08 05:42 41.12305 -73.28946 36856 ft 564 kts 52°
2026-05-08 05:42 41.16792 -73.20386 36931 ft 564 kts 52°
2026-05-08 05:43 41.21278 -73.11802 36901 ft 564 kts 52°
2026-05-08 05:43 41.24995 -73.04668 36885 ft 564 kts 52°
2026-05-08 05:44 41.30096 -72.94567 36844 ft 565 kts 56°
2026-05-08 05:44 41.33484 -72.87096 36915 ft 567 kts 57°
2026-05-08 05:45 41.37511 -72.78039 36887 ft 567 kts 57°
2026-05-08 05:45 41.41542 -72.68979 36875 ft 567 kts 57°
2026-05-08 05:46 41.45582 -72.59908 36842 ft 567 kts 57°
2026-05-08 05:46 41.49626 -72.50814 36869 ft 568 kts 57°
2026-05-08 05:47 41.53627 -72.41781 36875 ft 568 kts 57°
2026-05-08 05:47 41.57653 -72.32665 36873 ft 568 kts 57°
2026-05-08 05:48 41.61672 -72.23540 36846 ft 568 kts 58°
2026-05-08 05:48 41.65681 -72.14417 36888 ft 568 kts 58°
2026-05-08 05:49 41.69679 -72.05276 36883 ft 568 kts 58°
2026-05-08 05:49 41.73650 -71.96172 36877 ft 568 kts 58°
2026-05-08 05:50 41.77811 -71.87149 36886 ft 567 kts 52°
2026-05-08 05:50 41.82757 -71.78939 36866 ft 564 kts 43°
2026-05-08 05:51 41.88477 -71.71806 36863 ft 558 kts 34°
2026-05-08 05:51 41.94618 -71.65453 36916 ft 556 kts 32°
2026-05-08 05:52 42.00749 -71.59199 36879 ft 557 kts 33°
2026-05-08 05:52 42.06904 -71.52829 36837 ft 557 kts 33°
2026-05-08 05:53 42.13036 -71.46429 36884 ft 557 kts 33°
2026-05-08 05:53 42.19170 -71.40004 36868 ft 557 kts 33°
2026-05-08 05:54 42.25258 -71.33610 36862 ft 557 kts 33°
2026-05-08 05:54 42.31389 -71.27160 36865 ft 557 kts 34°
2026-05-08 05:55 42.37521 -71.20691 36861 ft 558 kts 34°
2026-05-08 05:55 42.43604 -71.14256 36854 ft 558 kts 34°
2026-05-08 05:56 42.49725 -71.07765 36865 ft 557 kts 34°
2026-05-08 05:56 42.55827 -71.01279 36847 ft 557 kts 34°
2026-05-08 05:57 42.61923 -70.94782 36872 ft 557 kts 34°
2026-05-08 05:57 42.67846 -70.88063 36839 ft 558 kts 40°
2026-05-08 05:58 42.73228 -70.80386 36829 ft 561 kts 47°
2026-05-08 05:58 42.78313 -70.72283 36869 ft 562 kts 48°
2026-05-08 05:59 42.83384 -70.64156 36835 ft 561 kts 47°
2026-05-08 05:59 42.88220 -70.56439 36829 ft 562 kts 47°
2026-05-08 06:00 42.93309 -70.48329 36853 ft 561 kts 48°
2026-05-08 06:00 42.98392 -70.40206 36833 ft 561 kts 48°
2026-05-08 06:01 43.03464 -70.32073 36835 ft 561 kts 48°
2026-05-08 06:01 43.08493 -70.23989 36831 ft 561 kts 48°
2026-05-08 06:02 43.13559 -70.15828 36814 ft 561 kts 49°
2026-05-08 06:02 43.18615 -70.07658 36828 ft 561 kts 49°
2026-05-08 06:03 43.23664 -69.99473 36847 ft 561 kts 49°
2026-05-08 06:03 43.28672 -69.91332 36823 ft 561 kts 49°
2026-05-08 06:04 43.33708 -69.83124 36822 ft 561 kts 49°
2026-05-08 06:04 43.38742 -69.74898 36833 ft 561 kts 49°
2026-05-08 06:05 43.43771 -69.66660 36788 ft 561 kts 49°
2026-05-08 06:05 43.48757 -69.58463 36813 ft 561 kts 49°
2026-05-08 06:06 43.53780 -69.50183 36837 ft 562 kts 50°
2026-05-08 06:06 43.58801 -69.41883 36818 ft 562 kts 50°
2026-05-08 06:07 43.63813 -69.33571 36813 ft 562 kts 50°
2026-05-08 06:07 43.68789 -69.25299 36811 ft 562 kts 50°
2026-05-08 06:08 43.73803 -69.16939 36809 ft 563 kts 50°
2026-05-08 06:08 43.78804 -69.08575 36802 ft 563 kts 50°
2026-05-08 06:09 43.83800 -69.00198 36809 ft 563 kts 50°
2026-05-08 06:09 43.88753 -68.91871 36783 ft 563 kts 51°
2026-05-08 06:10 43.93729 -68.83470 36797 ft 563 kts 51°
2026-05-08 06:10 43.98708 -68.75045 36797 ft 563 kts 51°
2026-05-08 06:11 44.03673 -68.66621 36791 ft 563 kts 51°
2026-05-08 06:11 44.08635 -68.58177 36786 ft 563 kts 51°
2026-05-08 06:12 44.13562 -68.49771 36795 ft 563 kts 51°
2026-05-08 06:12 44.18508 -68.41304 36783 ft 562 kts 51°
2026-05-08 06:13 44.23454 -68.32813 36775 ft 562 kts 51°
2026-05-08 06:13 44.28360 -68.24368 36741 ft 562 kts 51°
2026-05-08 06:14 44.33295 -68.15849 36779 ft 563 kts 52°
2026-05-08 06:14 44.38226 -68.07305 36778 ft 563 kts 52°
2026-05-08 06:15 44.43151 -67.98751 36777 ft 564 kts 52°
2026-05-08 06:15 44.48037 -67.90238 36766 ft 564 kts 52°
2026-05-08 06:16 44.52953 -67.81646 36766 ft 564 kts 52°
2026-05-08 06:16 44.57860 -67.73047 36761 ft 564 kts 52°
2026-05-08 06:17 44.65175 -67.60177 36762 ft 564 kts 52°
2026-05-08 06:17 44.70063 -67.51546 36763 ft 564 kts 52°
2026-05-08 06:18 44.74957 -67.42883 36738 ft 565 kts 52°
2026-05-08 06:18 44.79849 -67.34188 36747 ft 565 kts 53°
2026-05-08 06:19 44.84703 -67.25536 36746 ft 565 kts 53°
2026-05-08 06:19 44.89585 -67.16811 36746 ft 565 kts 53°
2026-05-08 06:20 44.94507 -67.08126 36743 ft 565 kts 52°
2026-05-08 06:20 44.99455 -66.99491 36739 ft 565 kts 52°
2026-05-08 06:21 45.04359 -66.90896 36745 ft 565 kts 52°
2026-05-08 06:21 45.09290 -66.82213 36738 ft 565 kts 52°
2026-05-08 06:22 45.14211 -66.73514 36731 ft 565 kts 52°
2026-05-08 06:22 45.19132 -66.64793 36718 ft 566 kts 53°
2026-05-08 06:23 45.24023 -66.56092 36732 ft 567 kts 53°
2026-05-08 06:23 45.28939 -66.47319 36733 ft 567 kts 53°
2026-05-08 06:24 45.33851 -66.38529 36735 ft 567 kts 53°
2026-05-08 06:24 45.38759 -66.29717 36731 ft 567 kts 53°
2026-05-08 06:25 45.43655 -66.20900 36722 ft 567 kts 53°
2026-05-08 06:25 45.48548 -66.12063 36734 ft 567 kts 53°
2026-05-08 06:26 45.53430 -66.03216 36724 ft 567 kts 53°
2026-05-08 06:26 45.58273 -65.94412 36721 ft 567 kts 53°
2026-05-08 06:27 45.63147 -65.85525 36692 ft 567 kts 54°
2026-05-08 06:27 45.68034 -65.76590 36696 ft 571 kts 54°
2026-05-08 06:28 45.72924 -65.67610 36717 ft 571 kts 54°
2026-05-08 06:28 45.77780 -65.58671 36705 ft 571 kts 54°
2026-05-08 06:29 45.82659 -65.49662 36704 ft 571 kts 54°
2026-05-08 06:29 45.87539 -65.40620 36715 ft 571 kts 54°
2026-05-08 06:30 45.92402 -65.31581 36721 ft 571 kts 54°
2026-05-08 06:30 45.97255 -65.22533 36709 ft 570 kts 54°
2026-05-08 06:31 46.02065 -65.13534 36700 ft 570 kts 55°
2026-05-08 06:31 46.06900 -65.04459 36697 ft 570 kts 55°
2026-05-08 06:32 46.10901 -64.96928 36692 ft 570 kts 55°
2026-05-08 06:32 46.15725 -64.87822 36694 ft 570 kts 55°
2026-05-08 06:33 46.20540 -64.78701 36693 ft 570 kts 55°
2026-05-08 06:33 46.25344 -64.69573 36694 ft 569 kts 55°
2026-05-08 06:34 46.30111 -64.60486 36692 ft 569 kts 55°
2026-05-08 06:34 46.34899 -64.51327 36689 ft 569 kts 55°
2026-05-08 06:35 46.39683 -64.42148 36685 ft 570 kts 56°
2026-05-08 06:35 46.44425 -64.33018 36678 ft 570 kts 56°
2026-05-08 06:36 46.49193 -64.23805 36677 ft 570 kts 56°
2026-05-08 06:36 46.53954 -64.14577 36688 ft 570 kts 56°
2026-05-08 06:37 46.58720 -64.05319 36658 ft 573 kts 56°
2026-05-08 06:37 46.63490 -63.96007 36688 ft 573 kts 56°
2026-05-08 06:38 46.68253 -63.86682 36665 ft 573 kts 57°
2026-05-08 06:38 46.72988 -63.77388 36669 ft 574 kts 57°
2026-05-08 06:39 46.77742 -63.68019 36683 ft 573 kts 57°
2026-05-08 06:39 46.82490 -63.58631 36684 ft 573 kts 57°
2026-05-08 06:40 46.87225 -63.49240 36676 ft 573 kts 57°
2026-05-08 06:40 46.91949 -63.39832 36678 ft 573 kts 57°
2026-05-08 06:41 46.96668 -63.30404 36680 ft 573 kts 57°
2026-05-08 06:41 47.01377 -63.20968 36615 ft 573 kts 58°
2026-05-08 06:42 47.06079 -63.11519 36672 ft 578 kts 58°
2026-05-08 06:42 47.10827 -63.01928 36683 ft 579 kts 58°
2026-05-08 06:43 47.15562 -62.92342 36684 ft 580 kts 58°
2026-05-08 06:43 47.20307 -62.82699 36678 ft 581 kts 58°
2026-05-08 06:44 47.25014 -62.73096 36679 ft 581 kts 58°
2026-05-08 06:44 47.29747 -62.63412 36699 ft 581 kts 59°
2026-05-08 06:45 47.34473 -62.53707 36687 ft 581 kts 59°
2026-05-08 06:45 47.39149 -62.44068 36687 ft 581 kts 59°
2026-05-08 06:46 47.43854 -62.34337 36687 ft 581 kts 59°
2026-05-08 06:46 47.48569 -62.24558 36641 ft 585 kts 59°
2026-05-08 06:47 47.53295 -62.14709 36681 ft 587 kts 59°
2026-05-08 06:47 47.57994 -62.04882 36700 ft 587 kts 59°
2026-05-08 06:48 47.62710 -61.94989 36691 ft 587 kts 59°
2026-05-08 06:48 47.67422 -61.85069 36684 ft 587 kts 60°
2026-05-08 06:49 47.72095 -61.75194 36670 ft 587 kts 60°
2026-05-08 06:49 47.76785 -61.65248 36679 ft 587 kts 60°
2026-05-08 06:50 47.81476 -61.55262 36682 ft 587 kts 60°
2026-05-08 06:50 47.86151 -61.45276 36684 ft 587 kts 60°
2026-05-08 06:51 47.90815 -61.35275 36674 ft 587 kts 60°
2026-05-08 06:51 47.95444 -61.25310 36655 ft 587 kts 60°
2026-05-08 06:52 48.00096 -61.15264 36676 ft 587 kts 60°
2026-05-08 06:52 48.04740 -61.05196 36689 ft 587 kts 60°
2026-05-08 06:53 48.09379 -60.95101 36685 ft 588 kts 60°
2026-05-08 06:53 48.14009 -60.84990 36689 ft 588 kts 60°
2026-05-08 06:54 48.18603 -60.74920 36684 ft 588 kts 60°
2026-05-08 06:54 48.23216 -60.64768 36681 ft 588 kts 60°
2026-05-08 06:55 48.27828 -60.54582 36678 ft 588 kts 60°
2026-05-08 06:55 48.32426 -60.44390 36679 ft 588 kts 60°
2026-05-08 06:56 48.37015 -60.34177 36687 ft 589 kts 60°
2026-05-08 06:56 48.41576 -60.23992 36656 ft 590 kts 61°
2026-05-08 06:57 48.46165 -60.13701 36677 ft 590 kts 61°
2026-05-08 06:57 48.50741 -60.03401 36689 ft 590 kts 61°
2026-05-08 06:58 48.55280 -59.93143 36682 ft 591 kts 61°
2026-05-08 06:58 48.59848 -59.82786 36682 ft 591 kts 61°
2026-05-08 06:59 48.64403 -59.72417 36685 ft 591 kts 61°
2026-05-08 06:59 48.68943 -59.62034 36683 ft 591 kts 61°
2026-05-08 07:00 48.73493 -59.51597 36675 ft 592 kts 61°
2026-05-08 07:00 48.77996 -59.41229 36684 ft 592 kts 61°
2026-05-08 07:01 48.82516 -59.30773 36686 ft 592 kts 61°
2026-05-08 07:01 48.87033 -59.20294 36659 ft 591 kts 62°
2026-05-08 07:02 48.91538 -59.09797 36681 ft 591 kts 62°
2026-05-08 07:02 48.95994 -58.99371 36678 ft 591 kts 62°
2026-05-08 07:03 49.00469 -58.88855 36690 ft 591 kts 62°
2026-05-08 07:03 49.04947 -58.78302 36680 ft 591 kts 62°
2026-05-08 07:04 49.09415 -58.67728 36672 ft 591 kts 62°
2026-05-08 07:04 49.13862 -58.57158 36676 ft 591 kts 62°
2026-05-08 07:05 49.18275 -58.46629 36665 ft 591 kts 62°
2026-05-08 07:05 49.22707 -58.36011 36660 ft 591 kts 62°
2026-05-08 07:06 49.27129 -58.25369 36667 ft 591 kts 62°
2026-05-08 07:06 49.31537 -58.14724 36612 ft 590 kts 62°
2026-05-08 07:07 49.35926 -58.04083 36645 ft 589 kts 62°
2026-05-08 07:07 49.40277 -57.93496 36650 ft 589 kts 62°
2026-05-08 07:08 49.44649 -57.82806 36636 ft 590 kts 62°
2026-05-08 07:08 49.49014 -57.72097 36630 ft 589 kts 62°
2026-05-08 07:09 49.53369 -57.61374 36633 ft 590 kts 62°
2026-05-08 07:09 49.57705 -57.50640 36627 ft 589 kts 62°
2026-05-08 07:10 49.62006 -57.39958 36618 ft 589 kts 62°
2026-05-08 07:10 49.66328 -57.29186 36614 ft 589 kts 62°
2026-05-08 07:11 49.70636 -57.18396 36610 ft 588 kts 62°
2026-05-08 07:11 49.74927 -57.07597 36575 ft 588 kts 61°
2026-05-08 07:12 49.79169 -56.96876 36608 ft 586 kts 61°
2026-05-08 07:12 49.83435 -56.86074 36612 ft 586 kts 62°
2026-05-08 07:13 49.87687 -56.75246 36613 ft 587 kts 62°
2026-05-08 07:13 49.91905 -56.64472 36615 ft 587 kts 62°
2026-05-08 07:14 49.96136 -56.53613 36616 ft 587 kts 62°
2026-05-08 07:14 50.00357 -56.42729 36616 ft 586 kts 62°
2026-05-08 07:15 50.04566 -56.31836 36622 ft 586 kts 62°
2026-05-08 07:15 50.08766 -56.20922 36622 ft 586 kts 62°
2026-05-08 07:16 50.12928 -56.10062 36614 ft 586 kts 62°
2026-05-08 07:16 50.17101 -55.99118 36621 ft 586 kts 62°
2026-05-08 07:17 50.21266 -55.88148 36598 ft 584 kts 62°
2026-05-08 07:17 50.25404 -55.77214 36627 ft 583 kts 62°
2026-05-08 07:18 50.29500 -55.66344 36630 ft 582 kts 62°
2026-05-08 07:18 50.33615 -55.55378 36632 ft 582 kts 62°
2026-05-08 07:19 50.37708 -55.44425 36639 ft 582 kts 62°
2026-05-08 07:19 50.41794 -55.33441 36635 ft 582 kts 62°
2026-05-08 07:20 50.45862 -55.22452 36640 ft 581 kts 62°
2026-05-08 07:20 50.49894 -55.11524 36643 ft 581 kts 62°
2026-05-08 07:21 50.53943 -55.00501 36653 ft 581 kts 62°
2026-05-08 07:21 50.57298 -54.91330 36652 ft 581 kts 62°
2026-05-08 07:22 50.61324 -54.80281 36660 ft 581 kts 62°
2026-05-08 07:22 50.65348 -54.69191 36654 ft 581 kts 62°
2026-05-08 07:23 50.69329 -54.58169 36654 ft 581 kts 62°
2026-05-08 07:23 50.73320 -54.47063 36662 ft 580 kts 62°
2026-05-08 07:24 50.77301 -54.35953 36667 ft 580 kts 62°
2026-05-08 07:24 50.81273 -54.24819 36662 ft 580 kts 62°
2026-05-08 07:25 50.85228 -54.13678 36671 ft 580 kts 62°
2026-05-08 07:26 50.91144 -53.96920 36677 ft 579 kts 63°
2026-05-08 07:26 50.95044 -53.85817 36686 ft 579 kts 63°
2026-05-08 07:27 50.98966 -53.74600 36683 ft 579 kts 63°
2026-05-08 07:27 51.02862 -53.63389 36691 ft 578 kts 62°
2026-05-08 07:28 51.06750 -53.52164 36683 ft 577 kts 62°
2026-05-08 07:28 51.10591 -53.41036 36703 ft 576 kts 62°
2026-05-08 07:29 51.14444 -53.29825 36703 ft 575 kts 62°
2026-05-08 07:29 51.18059 -53.18471 36705 ft 572 kts 66°
2026-05-08 07:30 51.21271 -53.06822 36720 ft 573 kts 68°
2026-05-08 07:30 51.24432 -52.95132 36723 ft 573 kts 68°
2026-05-08 07:31 51.27603 -52.83425 36724 ft 572 kts 68°
2026-05-08 07:31 51.30749 -52.71813 36731 ft 571 kts 68°
2026-05-08 07:32 51.33903 -52.60122 36740 ft 571 kts 68°
2026-05-08 07:32 51.37044 -52.48420 36747 ft 571 kts 68°
2026-05-08 07:33 51.40161 -52.36730 36735 ft 567 kts 68°
2026-05-08 07:33 51.43256 -52.25086 36763 ft 567 kts 68°
2026-05-08 07:34 51.46318 -52.13502 36767 ft 567 kts 68°
2026-05-08 07:34 51.49392 -52.01816 36765 ft 567 kts 68°
2026-05-08 07:35 51.52447 -51.90118 36762 ft 567 kts 68°
2026-05-08 07:35 51.55500 -51.78391 36794 ft 568 kts 68°
2026-05-08 07:36 51.58540 -51.66656 36789 ft 568 kts 68°
2026-05-08 07:36 51.61568 -51.54903 36787 ft 567 kts 68°
2026-05-08 07:37 51.64575 -51.43133 36770 ft 567 kts 68°
2026-05-08 07:37 51.67551 -51.31438 36799 ft 565 kts 67°
2026-05-08 07:38 51.70534 -51.19702 36817 ft 565 kts 67°
2026-05-08 07:38 51.73503 -51.07949 36817 ft 564 kts 67°
2026-05-08 07:39 51.76455 -50.96178 36830 ft 565 kts 67°
2026-05-08 07:39 51.79382 -50.84451 36838 ft 565 kts 67°
2026-05-08 07:40 51.82314 -50.72645 36840 ft 565 kts 67°
2026-05-08 07:40 51.85235 -50.60814 36842 ft 565 kts 68°
2026-05-08 07:41 51.88143 -50.48971 36858 ft 565 kts 68°
2026-05-08 07:41 51.91019 -50.37198 36862 ft 565 kts 68°
2026-05-08 07:42 51.93888 -50.25351 36855 ft 563 kts 67°
2026-05-08 07:42 51.96760 -50.13503 36876 ft 563 kts 67°
2026-05-08 07:43 51.99605 -50.01643 36884 ft 563 kts 66°
2026-05-08 07:43 52.02507 -49.89919 36893 ft 563 kts 65°
2026-05-08 07:44 52.05492 -49.78132 36895 ft 562 kts 65°
2026-05-08 07:44 52.08456 -49.66333 36913 ft 562 kts 65°
2026-05-08 07:45 52.11392 -49.54519 36916 ft 562 kts 65°
2026-05-08 07:45 52.14316 -49.42697 36922 ft 562 kts 65°
2026-05-08 07:46 52.17210 -49.30932 36933 ft 562 kts 65°
2026-05-08 07:46 52.20104 -49.19083 36925 ft 560 kts 65°
2026-05-08 07:47 52.22965 -49.07286 36946 ft 557 kts 65°
2026-05-08 07:47 52.25819 -48.95510 36961 ft 556 kts 65°
2026-05-08 07:48 52.28641 -48.83804 36961 ft 557 kts 65°
2026-05-08 07:48 52.31471 -48.71982 36984 ft 557 kts 65°
2026-05-08 07:49 52.34279 -48.60174 36985 ft 555 kts 65°
2026-05-08 07:49 52.37070 -48.48383 36989 ft 554 kts 65°
2026-05-08 07:50 52.39831 -48.36664 36999 ft 554 kts 65°
2026-05-08 07:50 52.42597 -48.24852 37010 ft 554 kts 65°
2026-05-08 07:51 52.45345 -48.13023 37019 ft 551 kts 65°
2026-05-08 07:51 52.48062 -48.01286 36998 ft 546 kts 65°
2026-05-08 07:52 52.50729 -47.89717 37015 ft 544 kts 65°
2026-05-08 07:52 52.53403 -47.78057 37043 ft 544 kts 65°
2026-05-08 07:53 52.56061 -47.66398 37042 ft 542 kts 65°
2026-05-08 07:53 52.58689 -47.54793 37054 ft 539 kts 65°
2026-05-08 07:54 52.61286 -47.43264 37052 ft 539 kts 65°
2026-05-08 07:54 52.63888 -47.31647 37070 ft 539 kts 65°
2026-05-08 07:55 52.66479 -47.20019 37090 ft 539 kts 65°
2026-05-08 07:55 52.69025 -47.08520 37081 ft 535 kts 65°
2026-05-08 07:56 52.71572 -46.96965 37087 ft 535 kts 66°
2026-05-08 07:56 52.74106 -46.85397 37075 ft 534 kts 66°
2026-05-08 07:57 52.76619 -46.73857 37102 ft 532 kts 66°
2026-05-08 07:57 52.79117 -46.62339 37109 ft 531 kts 66°
2026-05-08 07:58 52.81603 -46.50804 37107 ft 531 kts 66°
2026-05-08 07:58 52.84061 -46.39333 37121 ft 531 kts 66°
2026-05-08 07:59 52.86523 -46.27772 37117 ft 531 kts 66°
2026-05-08 07:59 52.88971 -46.16206 37124 ft 530 kts 66°
2026-05-08 08:00 52.91404 -46.04655 37139 ft 530 kts 66°
2026-05-08 08:00 52.93829 -45.93080 37129 ft 530 kts 66°
2026-05-08 08:01 52.96242 -45.81493 37132 ft 530 kts 66°
2026-05-08 08:01 52.98630 -45.69959 37135 ft 530 kts 66°
2026-05-08 08:02 53.01008 -45.58382 37139 ft 526 kts 66°
2026-05-08 08:02 53.03369 -45.46846 37138 ft 526 kts 66°
2026-05-08 08:03 53.05716 -45.35319 37144 ft 526 kts 66°
2026-05-08 08:03 53.08054 -45.23764 37155 ft 526 kts 66°
2026-05-08 08:04 53.10368 -45.12237 37146 ft 528 kts 66°
2026-05-08 08:04 53.12700 -45.00581 37146 ft 529 kts 66°
2026-05-08 08:05 53.15017 -44.88923 37151 ft 529 kts 66°
2026-05-08 08:05 53.17322 -44.77251 37161 ft 529 kts 66°
2026-05-08 08:06 53.19620 -44.65562 37163 ft 529 kts 67°
2026-05-08 08:06 53.21887 -44.53942 37175 ft 529 kts 67°
2026-05-08 08:07 53.24157 -44.42229 37175 ft 528 kts 68°
2026-05-08 08:07 53.26026 -44.32551 37191 ft 523 kts 68°
2026-05-08 08:08 53.28248 -44.20947 37190 ft 523 kts 68°
2026-05-08 08:08 53.30458 -44.09385 37191 ft 518 kts 69°
2026-05-08 08:09 53.32622 -43.97939 37202 ft 518 kts 69°
2026-05-08 08:09 53.34790 -43.86403 37199 ft 518 kts 69°
2026-05-08 08:10 53.36947 -43.74875 37198 ft 518 kts 69°
2026-05-08 08:10 53.39095 -43.63327 37211 ft 518 kts 69°
2026-05-08 08:11 53.41220 -43.51831 37213 ft 518 kts 70°
2026-05-08 08:11 53.43347 -43.40245 37216 ft 519 kts 70°
2026-05-08 08:12 53.45465 -43.28642 37218 ft 519 kts 70°
2026-05-08 08:12 53.47570 -43.17033 37221 ft 519 kts 70°
2026-05-08 08:13 53.49660 -43.05439 37227 ft 516 kts 70°
2026-05-08 08:13 53.51723 -42.93920 37234 ft 516 kts 70°
2026-05-08 08:14 53.53787 -42.82323 37232 ft 516 kts 70°
2026-05-08 08:14 53.55839 -42.70719 37237 ft 516 kts 70°
2026-05-08 08:15 53.57878 -42.59105 37247 ft 514 kts 70°
2026-05-08 08:15 53.59877 -42.47644 37238 ft 512 kts 70°
2026-05-08 08:16 53.61880 -42.36102 37243 ft 512 kts 70°
2026-05-08 08:16 53.63869 -42.24565 37248 ft 512 kts 70°
2026-05-08 08:17 53.65848 -42.13002 37248 ft 512 kts 70°
2026-05-08 08:17 53.67809 -42.01451 37254 ft 509 kts 70°
2026-05-08 08:18 53.69741 -41.90016 37262 ft 508 kts 70°
2026-05-08 08:18 53.71666 -41.78533 37261 ft 506 kts 70°
2026-05-08 08:19 53.73577 -41.67090 37267 ft 506 kts 70°
2026-05-08 08:19 53.75480 -41.55606 37287 ft 506 kts 70°
2026-05-08 08:20 53.77364 -41.44146 37271 ft 504 kts 70°
2026-05-08 08:20 53.79226 -41.32763 37275 ft 504 kts 70°
2026-05-08 08:21 53.81089 -41.21289 37283 ft 505 kts 70°
2026-05-08 08:21 53.82941 -41.09802 37283 ft 505 kts 70°
2026-05-08 08:22 53.84768 -40.98373 37299 ft 502 kts 70°
2026-05-08 08:22 53.86585 -40.86950 37295 ft 500 kts 70°
2026-05-08 08:23 53.88389 -40.75538 37300 ft 500 kts 70°
2026-05-08 08:23 53.90170 -40.64188 37298 ft 500 kts 70°
2026-05-08 08:24 53.91945 -40.52776 37300 ft 498 kts 70°
2026-05-08 08:24 53.93707 -40.41396 37302 ft 498 kts 70°
2026-05-08 08:25 53.95459 -40.30000 37305 ft 498 kts 70°
2026-05-08 08:25 53.97200 -40.18593 37312 ft 498 kts 71°
2026-05-08 08:26 53.98917 -40.07250 37307 ft 498 kts 71°
2026-05-08 08:26 54.00626 -39.95805 37334 ft 497 kts 71°
2026-05-08 08:27 54.02268 -39.84361 37317 ft 496 kts 71°
2026-05-08 08:27 54.03881 -39.73014 37320 ft 496 kts 71°
2026-05-08 08:28 54.05501 -39.61562 37330 ft 496 kts 71°
2026-05-08 08:28 54.07108 -39.50117 37335 ft 496 kts 71°
2026-05-08 08:29 54.08696 -39.38731 37352 ft 495 kts 72°
2026-05-08 08:29 54.10276 -39.27312 37349 ft 493 kts 72°
2026-05-08 08:30 54.11842 -39.15907 37345 ft 493 kts 72°
2026-05-08 08:30 54.14172 -38.98782 37351 ft 493 kts 72°
2026-05-08 08:31 54.15712 -38.87353 37351 ft 493 kts 72°
2026-05-08 08:31 54.17231 -38.76003 37364 ft 492 kts 72°
2026-05-08 08:32 54.18742 -38.64602 37368 ft 492 kts 72°
2026-05-08 08:32 54.20247 -38.53168 37364 ft 492 kts 72°
2026-05-08 08:33 54.21737 -38.41748 37371 ft 492 kts 72°
2026-05-08 08:33 54.23221 -38.30297 37402 ft 492 kts 73°
2026-05-08 08:34 54.24679 -38.18956 37385 ft 490 kts 73°
2026-05-08 08:34 54.26133 -38.07546 37382 ft 490 kts 73°
2026-05-08 08:35 54.27576 -37.96123 37389 ft 490 kts 73°
2026-05-08 08:35 54.29008 -37.84702 37387 ft 490 kts 73°
2026-05-08 08:36 54.30423 -37.73327 37415 ft 489 kts 73°
2026-05-08 08:36 54.31831 -37.61907 37380 ft 489 kts 73°
2026-05-08 08:37 54.33230 -37.50474 37397 ft 489 kts 73°
2026-05-08 08:37 54.34618 -37.39026 37393 ft 489 kts 73°
2026-05-08 08:38 54.35984 -37.27667 37403 ft 489 kts 74°
2026-05-08 08:38 54.37349 -37.16212 37423 ft 489 kts 74°
2026-05-08 08:39 54.38703 -37.04753 37410 ft 489 kts 74°
2026-05-08 08:39 54.40048 -36.93285 37413 ft 489 kts 74°
2026-05-08 08:40 54.41372 -36.81885 37412 ft 489 kts 74°
2026-05-08 08:40 54.42694 -36.70404 37418 ft 489 kts 74°
2026-05-08 08:41 54.44002 -36.58914 37439 ft 488 kts 74°
2026-05-08 08:41 54.45292 -36.47509 37423 ft 488 kts 74°
2026-05-08 08:42 54.46581 -36.36028 37424 ft 488 kts 74°
2026-05-08 08:42 54.47859 -36.24529 37424 ft 488 kts 74°
2026-05-08 08:43 54.49126 -36.13018 37429 ft 488 kts 74°
2026-05-08 08:43 54.50378 -36.01503 37445 ft 488 kts 74°
2026-05-08 08:44 54.51611 -35.90081 37433 ft 487 kts 74°
2026-05-08 08:44 54.52845 -35.78574 37435 ft 487 kts 74°
2026-05-08 08:45 54.54066 -35.67060 37430 ft 488 kts 74°
2026-05-08 08:45 54.55277 -35.55528 37434 ft 488 kts 74°
2026-05-08 08:46 54.56474 -35.43987 37446 ft 487 kts 74°
2026-05-08 08:46 54.57658 -35.32474 37437 ft 487 kts 74°
2026-05-08 08:47 54.58826 -35.21033 37438 ft 487 kts 74°
2026-05-08 08:47 54.59995 -35.09478 37433 ft 487 kts 74°
2026-05-08 08:48 54.61142 -34.98007 37440 ft 487 kts 74°
2026-05-08 08:48 54.62285 -34.86451 37441 ft 487 kts 74°
2026-05-08 08:49 54.63417 -34.74900 37436 ft 487 kts 74°
2026-05-08 08:49 54.64539 -34.63315 37441 ft 487 kts 74°
2026-05-08 08:50 54.65648 -34.51752 37442 ft 487 kts 75°
2026-05-08 08:50 54.66741 -34.40246 37444 ft 487 kts 75°
2026-05-08 08:51 54.67830 -34.28650 37451 ft 486 kts 75°
2026-05-08 08:51 54.68904 -34.17081 37444 ft 486 kts 75°
2026-05-08 08:52 54.69966 -34.05525 37448 ft 486 kts 75°
2026-05-08 08:52 54.71010 -33.94032 37453 ft 485 kts 75°
2026-05-08 08:53 54.72049 -33.82478 37450 ft 485 kts 75°
2026-05-08 08:53 54.73079 -33.70924 37463 ft 483 kts 75°
2026-05-08 08:54 54.74088 -33.59439 37458 ft 482 kts 75°
2026-05-08 08:54 54.74919 -33.49879 37452 ft 482 kts 76°
2026-05-08 08:55 54.76069 -33.36515 37453 ft 482 kts 76°
2026-05-08 08:55 54.76890 -33.26863 37450 ft 482 kts 76°
2026-05-08 08:56 54.77855 -33.15415 37473 ft 481 kts 76°
2026-05-08 08:56 54.78811 -33.03925 37460 ft 481 kts 76°
2026-05-08 08:57 54.79755 -32.92417 37446 ft 481 kts 76°
2026-05-08 08:57 54.80689 -32.80903 37446 ft 481 kts 76°
2026-05-08 08:58 54.81606 -32.69474 37461 ft 481 kts 76°
2026-05-08 08:58 54.82520 -32.57952 37471 ft 480 kts 77°
2026-05-08 08:59 54.83418 -32.46467 37456 ft 479 kts 77°
2026-05-08 08:59 54.84305 -32.34977 37451 ft 479 kts 77°
2026-05-08 09:00 54.85177 -32.23550 37452 ft 479 kts 77°
2026-05-08 09:00 54.86045 -32.12033 37453 ft 479 kts 77°
2026-05-08 09:01 54.86899 -32.00526 37472 ft 479 kts 77°
2026-05-08 09:01 54.87740 -31.89042 37450 ft 478 kts 77°
2026-05-08 09:02 54.88573 -31.77562 37449 ft 478 kts 77°
2026-05-08 09:02 54.89389 -31.66147 37448 ft 478 kts 77°
2026-05-08 09:03 54.90199 -31.54647 37448 ft 478 kts 77°
2026-05-08 09:03 54.90997 -31.43155 37476 ft 478 kts 77°
2026-05-08 09:04 54.91784 -31.31652 37449 ft 477 kts 77°
2026-05-08 09:04 54.92553 -31.20243 37443 ft 477 kts 77°
2026-05-08 09:05 54.93319 -31.08761 37441 ft 477 kts 77°
2026-05-08 09:05 54.94075 -30.97262 37441 ft 477 kts 77°
2026-05-08 09:06 54.94819 -30.85762 37470 ft 477 kts 77°
2026-05-08 09:06 54.95547 -30.74284 37443 ft 476 kts 77°
2026-05-08 09:07 54.96264 -30.62879 37437 ft 476 kts 77°
2026-05-08 09:07 54.96974 -30.51399 37435 ft 476 kts 77°
2026-05-08 09:08 54.97673 -30.39914 37436 ft 476 kts 77°
2026-05-08 09:08 54.98355 -30.28507 37465 ft 476 kts 77°
2026-05-08 09:09 54.99028 -30.17025 37440 ft 474 kts 77°
2026-05-08 09:09 54.99692 -30.05578 37435 ft 474 kts 77°
2026-05-08 09:10 55.00293 -29.94098 37428 ft 475 kts 79°
2026-05-08 09:10 55.00743 -29.82574 37429 ft 476 kts 79°
2026-05-08 09:11 55.01176 -29.71118 37425 ft 476 kts 79°
2026-05-08 09:11 55.01605 -29.59598 37438 ft 474 kts 79°
2026-05-08 09:12 55.02033 -29.48105 37429 ft 474 kts 79°
2026-05-08 09:12 55.02452 -29.36607 37423 ft 474 kts 79°
2026-05-08 09:13 55.02856 -29.25193 37419 ft 474 kts 79°
2026-05-08 09:13 55.03253 -29.13687 37415 ft 474 kts 79°
2026-05-08 09:14 55.03639 -29.02178 37415 ft 474 kts 79°
2026-05-08 09:14 55.04014 -28.90657 37409 ft 474 kts 79°
2026-05-08 09:15 55.04377 -28.79142 37409 ft 475 kts 79°
2026-05-08 09:15 55.04729 -28.67680 37409 ft 475 kts 79°
2026-05-08 09:16 55.05068 -28.56138 37422 ft 474 kts 79°
2026-05-08 09:16 55.05397 -28.44634 37437 ft 473 kts 79°
2026-05-08 09:17 55.05718 -28.33130 37411 ft 473 kts 79°
2026-05-08 09:17 55.06027 -28.21708 37409 ft 473 kts 79°
2026-05-08 09:18 55.06326 -28.10214 37405 ft 473 kts 79°
2026-05-08 09:18 55.06615 -27.98679 37397 ft 473 kts 79°
2026-05-08 09:19 55.06889 -27.87257 37444 ft 473 kts 79°
2026-05-08 09:19 55.07152 -27.75769 37407 ft 472 kts 79°
2026-05-08 09:20 55.07406 -27.64299 37395 ft 472 kts 79°
2026-05-08 09:20 55.07649 -27.52903 37401 ft 472 kts 79°
2026-05-08 09:21 55.07882 -27.41433 37389 ft 472 kts 79°
2026-05-08 09:23 55.08607 -27.01436 37384 ft 469 kts 80°
2026-05-08 09:23 55.08791 -26.90015 37383 ft 469 kts 80°
2026-05-08 09:24 55.08964 -26.78594 37384 ft 469 kts 80°
2026-05-08 09:24 55.09125 -26.67241 37429 ft 470 kts 80°
2026-05-08 09:25 55.09279 -26.55800 37373 ft 470 kts 81°
2026-05-08 09:25 55.09418 -26.44355 37368 ft 470 kts 81°
2026-05-08 09:26 55.09547 -26.32909 37369 ft 470 kts 81°
2026-05-08 09:26 55.09666 -26.21457 37366 ft 470 kts 81°
2026-05-08 09:27 55.09774 -26.10082 37383 ft 470 kts 81°
2026-05-08 09:27 55.09880 -25.98611 37384 ft 473 kts 82°
2026-05-08 09:28 55.09962 -25.87084 37367 ft 474 kts 82°